This demonstration page uses our WeatherBlox Daily Observations layout. Learn more.

Left ArrowRight Arrow

39.29038, -76.61219

Hourly Observations for October 4, 2022

Temp ( °F °C ) Dew Point ( °F °C ) Humidity (%) Winds ( mph kmh ) Pressure ( in mb ) Visibility ( mi km ) Precip ( " mm )
12:54 am 00:54 undefined 50 10 43 6.1 77 77 undefined N/A 30.14 1021 N/A 0.03 0.76
1:54 am 01:54 undefined 49 9.4 43 6.1 80 80 undefined N/A 30.12 1020 N/A 0.03 0.76
2:54 am 02:54 undefined 49 9.4 43 6.1 80 80 undefined N/A 30.10 1019 N/A 0.06 1.52
3:54 am 03:54 undefined 49 9.4 43 6.1 80 80 undefined N/A 30.08 1019 N/A 0.02 0.51
4:54 am 04:54 undefined 50 10 43 6.1 77 77 undefined N/A 30.08 1019 N/A 0.00 0.00
5:54 am 05:54 undefined 49 9.4 43 6.1 80 80 undefined N/A 30.05 1018 N/A 0.05 1.27
6:54 am 06:54 undefined 48 8.9 43 6.1 83 83 undefined N/A 30.04 1017 N/A 0.18 4.57
7:54 am 07:54 undefined 48 8.9 43 6.1 83 83 undefined N/A 30.04 1017 N/A 0.09 2.29
8:54 am 08:54 undefined 49 9.4 44 6.7 83 83 undefined N/A 30.04 1017 N/A 0.21 5.33
9:54 am 09:54 undefined 49 9.4 45 7.2 86 86 undefined N/A 30.02 1017 N/A 0.18 4.57
10:54 am 10:54 undefined 50 10 46 7.8 86 86 undefined N/A 30.02 1017 N/A 0.08 2.03
11:54 am 11:54 undefined 52 11.1 47 8.3 83 83 undefined N/A 30.02 1017 N/A 0.01 0.25
12:54 pm 12:54 undefined 53 11.7 48 8.9 83 83 undefined N/A 29.99 1016 N/A 0.02 0.51
1:54 pm 13:54 undefined 54 12.2 49 9.4 83 83 undefined N/A 29.98 1015 N/A 0.00 0.00
2:54 pm 14:54 undefined 56 13.3 51 10.6 84 84 undefined N/A 29.96 1015 N/A 0.00 0.00
3:54 pm 15:54 undefined 56 13.3 50 10 80 80 undefined N/A 29.95 1014 N/A 0.00 0.00
4:54 pm 16:54 undefined 53 11.7 49 9.4 86 86 undefined N/A 29.93 1013 N/A 0.14 3.56
5:54 pm 17:54 undefined 52 11.1 48 8.9 86 86 undefined N/A 29.94 1014 N/A 0.02 0.51
6:54 pm 18:54 undefined 52 11.1 47 8.3 83 83 undefined N/A 29.94 1014 N/A 0.01 0.25
7:54 pm 19:54 undefined 52 11.1 47 8.3 83 83 undefined N/A 29.95 1014 N/A 0.00 0.00
8:54 pm 20:54 undefined 51 10.6 47 8.3 86 86 undefined N/A 29.94 1014 N/A 0.35 8.89
9:54 pm 21:54 undefined 52 11.1 48 8.9 86 86 undefined N/A 29.95 1014 N/A 0.07 1.78
10:54 pm 22:54 undefined 53 11.7 48 8.9 83 83 undefined N/A 29.94 1014 N/A 0.00 0.00
11:54 pm 23:54 undefined 53 11.7 48 8.9 83 83 undefined N/A 29.92 1013 N/A 0.02 0.51

Powered by AerisWeather